EWG7DJ LIRP-EDDK

Flight info

Callsign EWG7DJ
Flight time 1h 15m
Altitude 34000
Route BEROK DCT OSBUL DCT ABREG DCT LADOL T163 KOVAN T844 ASKIK T840 GULKO
Aircraft A320/M-SDE2E3FGIJ1RWXYZ/HB1

Departure

Time 2026-05-06 18:01
Airport Pisa International Airport (LIRP)

Arrival

Time 2026-05-06 19:17
Airport Cologne Bonn Airport (EDDK)
Time Latitude Longitude Altitude Speed Heading
2026-05-06 17:26 43.69746 10.40031 15 ft 0 kts
2026-05-06 17:51 43.69739 10.40029 15 ft 4 kts
2026-05-06 17:52 43.69714 10.40022 15 ft 4 kts 24°
2026-05-06 17:52 43.69693 10.40002 16 ft 4 kts 61°
2026-05-06 17:52 43.69688 10.39976 15 ft 1 kts 99°
2026-05-06 17:52 43.69689 10.39971 15 ft 0 kts 99°
2026-05-06 17:54 43.69685 10.39973 17 ft 1 kts 142°
2026-05-06 17:54 43.69659 10.39953 16 ft 12 kts 209°
2026-05-06 17:55 43.69550 10.39921 15 ft 20 kts 188°
2026-05-06 17:55 43.69396 10.39889 16 ft 24 kts 183°
2026-05-06 17:55 43.69218 10.39917 22 ft 26 kts 175°
2026-05-06 17:55 43.69061 10.39803 20 ft 27 kts 217°
2026-05-06 17:56 43.68908 10.39644 18 ft 28 kts 217°
2026-05-06 17:56 43.68748 10.39479 18 ft 29 kts 217°
2026-05-06 17:56 43.68585 10.39312 20 ft 29 kts 217°
2026-05-06 17:56 43.68420 10.39141 17 ft 30 kts 217°
2026-05-06 17:57 43.68249 10.38964 14 ft 31 kts 217°
2026-05-06 17:57 43.68075 10.38783 13 ft 32 kts 217°
2026-05-06 17:57 43.67898 10.38604 16 ft 31 kts 215°
2026-05-06 17:57 43.67727 10.38427 16 ft 29 kts 217°
2026-05-06 17:58 43.67566 10.38259 14 ft 27 kts 216°
2026-05-06 17:58 43.67457 10.38146 16 ft 17 kts 217°
2026-05-06 17:58 43.67358 10.38151 16 ft 9 kts 133°
2026-05-06 17:58 43.67355 10.38156 15 ft 0 kts 132°
2026-05-06 17:59 43.67350 10.38163 15 ft 6 kts 130°
2026-05-06 17:59 43.67296 10.38280 16 ft 15 kts 112°
2026-05-06 17:59 43.67341 10.38362 15 ft 9 kts 28°
2026-05-06 17:59 43.67375 10.38392 16 ft 0 kts 38°
2026-05-06 18:00 43.67383 10.38400 19 ft 10 kts 38°
2026-05-06 18:01 43.67656 10.38683 19 ft 85 kts 37°
2026-05-06 18:01 43.68303 10.39350 19 ft 143 kts 37°
2026-05-06 18:01 43.69195 10.40271 295 ft 163 kts 36°
2026-05-06 18:01 43.70104 10.41218 942 ft 164 kts 34°
2026-05-06 18:02 43.71029 10.42153 1503 ft 168 kts 33°
2026-05-06 18:02 43.72101 10.42943 1836 ft 184 kts 17°
2026-05-06 18:02 43.73408 10.43296 2205 ft 199 kts 360°
2026-05-06 18:02 43.74815 10.43073 2691 ft 208 kts 341°
2026-05-06 18:03 43.76193 10.42351 3138 ft 222 kts 336°
2026-05-06 18:03 43.77725 10.41535 3445 ft 248 kts 337°
2026-05-06 18:03 43.79403 10.40662 3891 ft 265 kts 337°
2026-05-06 18:03 43.81153 10.39750 4611 ft 271 kts 336°
2026-05-06 18:04 43.82903 10.38829 5406 ft 274 kts 336°
2026-05-06 18:04 43.84709 10.37890 6207 ft 280 kts 335°
2026-05-06 18:04 43.86547 10.36933 7079 ft 283 kts 334°
2026-05-06 18:04 43.88427 10.36021 7887 ft 290 kts 341°
2026-05-06 18:05 43.90447 10.35619 8607 ft 296 kts 349°
2026-05-06 18:05 43.92524 10.35315 9289 ft 303 kts 349°
2026-05-06 18:05 43.94672 10.34980 9809 ft 308 kts 349°
2026-05-06 18:05 43.96802 10.34645 9954 ft 312 kts 348°
2026-05-06 18:06 43.99047 10.34351 10327 ft 345 kts 353°
2026-05-06 18:06 44.01514 10.34370 10682 ft 362 kts 358°
2026-05-06 18:06 44.04073 10.34487 11467 ft 369 kts 358°
2026-05-06 18:06 44.06659 10.34637 12236 ft 373 kts 359°
2026-05-06 18:07 44.09235 10.34794 12846 ft 378 kts 359°
2026-05-06 18:07 44.11872 10.34943 13518 ft 380 kts 359°
2026-05-06 18:07 44.14534 10.35079 14125 ft 384 kts 358°
2026-05-06 18:07 44.17213 10.35117 14751 ft 387 kts 353°
2026-05-06 18:08 44.19916 10.34859 15431 ft 390 kts 352°
2026-05-06 18:08 44.22633 10.34605 16106 ft 392 kts 352°
2026-05-06 18:08 44.25375 10.34357 16745 ft 396 kts 352°
2026-05-06 18:08 44.28139 10.34117 17346 ft 399 kts 352°
2026-05-06 18:09 44.30916 10.33881 17897 ft 402 kts 352°
2026-05-06 18:09 44.33727 10.33647 18484 ft 405 kts 352°
2026-05-06 18:09 44.36549 10.33406 19002 ft 408 kts 352°
2026-05-06 18:09 44.39392 10.33155 19532 ft 411 kts 352°
2026-05-06 18:10 44.42261 10.32898 20055 ft 415 kts 352°
2026-05-06 18:10 44.45156 10.32636 20551 ft 418 kts 352°
2026-05-06 18:10 44.48040 10.32374 21007 ft 423 kts 352°
2026-05-06 18:10 44.50983 10.32118 21499 ft 425 kts 351°
2026-05-06 18:11 44.53947 10.31861 21931 ft 429 kts 351°
2026-05-06 18:11 44.56944 10.31594 22371 ft 433 kts 352°
2026-05-06 18:11 44.59961 10.31323 22798 ft 436 kts 351°
2026-05-06 18:11 44.62994 10.31053 23214 ft 440 kts 351°
2026-05-06 18:12 44.66070 10.30779 23647 ft 444 kts 351°
2026-05-06 18:12 44.69160 10.30502 24056 ft 446 kts 351°
2026-05-06 18:12 44.72275 10.30221 24460 ft 450 kts 351°
2026-05-06 18:12 44.75412 10.29942 24852 ft 453 kts 351°
2026-05-06 18:13 44.78566 10.29658 25239 ft 455 kts 351°
2026-05-06 18:13 44.81702 10.29195 25606 ft 452 kts 343°
2026-05-06 18:13 44.84732 10.28121 25959 ft 445 kts 335°
2026-05-06 18:13 44.87619 10.26712 26263 ft 447 kts 334°
2026-05-06 18:14 44.90561 10.25274 26586 ft 447 kts 334°
2026-05-06 18:14 44.93512 10.23837 26889 ft 450 kts 334°
2026-05-06 18:14 44.96486 10.22385 27203 ft 453 kts 334°
2026-05-06 18:14 44.99470 10.20926 27525 ft 455 kts 334°
2026-05-06 18:15 45.02465 10.19461 27840 ft 457 kts 334°
2026-05-06 18:15 45.05490 10.17980 28136 ft 459 kts 333°
2026-05-06 18:15 45.08521 10.16494 28435 ft 461 kts 333°
2026-05-06 18:15 45.11559 10.14999 28719 ft 464 kts 333°
2026-05-06 18:16 45.14574 10.13512 28976 ft 466 kts 333°
2026-05-06 18:16 45.17681 10.11980 29201 ft 469 kts 333°
2026-05-06 18:16 45.20718 10.10483 29463 ft 472 kts 333°
2026-05-06 18:16 45.23829 10.08949 29723 ft 474 kts 333°
2026-05-06 18:17 45.26944 10.07408 29962 ft 475 kts 333°
2026-05-06 18:17 45.30076 10.05857 30177 ft 478 kts 333°
2026-05-06 18:17 45.33226 10.04299 30399 ft 479 kts 333°
2026-05-06 18:17 45.36386 10.02734 30609 ft 481 kts 333°
2026-05-06 18:18 45.39557 10.01164 30782 ft 482 kts 333°
2026-05-06 18:18 45.42735 9.99592 30984 ft 484 kts 333°
2026-05-06 18:18 45.45910 9.98017 31257 ft 484 kts 333°
2026-05-06 18:18 45.49093 9.96429 31514 ft 483 kts 333°
2026-05-06 18:19 45.52222 9.94872 31744 ft 482 kts 333°
2026-05-06 18:19 45.55388 9.93296 31948 ft 483 kts 333°
2026-05-06 18:19 45.58604 9.91689 32172 ft 484 kts 333°
2026-05-06 18:19 45.61730 9.90122 32428 ft 482 kts 333°
2026-05-06 18:20 45.64941 9.88511 32672 ft 482 kts 332°
2026-05-06 18:20 45.68105 9.86921 32946 ft 483 kts 332°
2026-05-06 18:20 45.71189 9.85372 33129 ft 473 kts 332°
2026-05-06 18:20 45.74327 9.83746 33304 ft 475 kts 333°
2026-05-06 18:21 45.80570 9.80656 33544 ft 486 kts 334°
2026-05-06 18:21 45.83723 9.79063 33811 ft 480 kts 333°
2026-05-06 18:21 45.86874 9.77466 34080 ft 479 kts 332°
2026-05-06 18:22 45.90018 9.75876 34315 ft 480 kts 332°
2026-05-06 18:22 45.93165 9.74286 34541 ft 479 kts 333°
2026-05-06 18:22 45.96305 9.72701 34798 ft 478 kts 333°
2026-05-06 18:22 45.99443 9.71115 35041 ft 479 kts 333°
2026-05-06 18:23 46.02583 9.69519 35322 ft 478 kts 333°
2026-05-06 18:23 46.05707 9.67919 35635 ft 476 kts 333°
2026-05-06 18:23 46.08829 9.66324 35883 ft 474 kts 333°
2026-05-06 18:23 46.11929 9.64744 36108 ft 473 kts 334°
2026-05-06 18:24 46.15041 9.63159 36354 ft 472 kts 334°
2026-05-06 18:24 46.18135 9.61582 36514 ft 471 kts 334°
2026-05-06 18:24 46.21225 9.60008 36651 ft 471 kts 334°
2026-05-06 18:24 46.24279 9.58446 36855 ft 470 kts 334°
2026-05-06 18:25 46.27362 9.56861 37137 ft 468 kts 334°
2026-05-06 18:25 46.30423 9.55332 37423 ft 467 kts 338°
2026-05-06 18:25 46.33566 9.54225 37635 ft 467 kts 342°
2026-05-06 18:25 46.36733 9.53235 37782 ft 464 kts 343°
2026-05-06 18:26 46.39899 9.52259 37906 ft 464 kts 343°
2026-05-06 18:26 46.43062 9.51289 37930 ft 465 kts 342°
2026-05-06 18:26 46.49403 9.49333 37935 ft 464 kts 342°
2026-05-06 18:27 46.55707 9.47369 37939 ft 463 kts 342°
2026-05-06 18:27 46.62017 9.45367 37923 ft 463 kts 343°
2026-05-06 18:28 46.68308 9.43389 37937 ft 463 kts 343°
2026-05-06 18:28 46.74617 9.41391 37939 ft 465 kts 343°
2026-05-06 18:29 46.80966 9.39385 37935 ft 466 kts 343°
2026-05-06 18:29 46.87279 9.37381 37939 ft 467 kts 343°
2026-05-06 18:30 46.93648 9.35358 37946 ft 469 kts 343°
2026-05-06 18:30 47.00010 9.33338 37945 ft 467 kts 343°
2026-05-06 18:31 47.06360 9.31322 37950 ft 468 kts 343°
2026-05-06 18:31 47.12712 9.29277 37956 ft 465 kts 343°
2026-05-06 18:32 47.19043 9.27251 37947 ft 466 kts 343°
2026-05-06 18:32 47.25341 9.25235 37949 ft 465 kts 343°
2026-05-06 18:33 47.31636 9.23200 37941 ft 464 kts 343°
2026-05-06 18:33 47.37942 9.21166 37938 ft 463 kts 343°
2026-05-06 18:34 47.44166 9.19139 37934 ft 463 kts 343°
2026-05-06 18:34 47.50425 9.17124 37904 ft 461 kts 344°
2026-05-06 18:35 47.56694 9.15101 37900 ft 462 kts 343°
2026-05-06 18:35 47.62982 9.13042 37912 ft 463 kts 343°
2026-05-06 18:36 47.69276 9.10971 37902 ft 464 kts 343°
2026-05-06 18:36 47.75586 9.08908 37918 ft 464 kts 344°
2026-05-06 18:37 47.80829 9.07188 37914 ft 464 kts 343°
2026-05-06 18:37 47.88174 9.04764 37925 ft 465 kts 344°
2026-05-06 18:38 47.94489 9.02680 37930 ft 465 kts 343°
2026-05-06 18:38 48.00796 9.00593 37936 ft 464 kts 343°
2026-05-06 18:39 48.07109 8.98494 37929 ft 464 kts 344°
2026-05-06 18:40 48.16617 8.95754 37922 ft 467 kts 354°
2026-05-06 18:40 48.23096 8.96292 37916 ft 470 kts
2026-05-06 18:41 48.29599 8.97284 37900 ft 471 kts
2026-05-06 18:41 48.36121 8.98279 37897 ft 470 kts
2026-05-06 18:42 48.42622 8.99281 37888 ft 470 kts
2026-05-06 18:42 48.49139 9.00264 37890 ft 470 kts
2026-05-06 18:43 48.55632 9.01244 37880 ft 470 kts
2026-05-06 18:43 48.62132 9.02240 37869 ft 471 kts
2026-05-06 18:44 48.68657 9.03520 37879 ft 473 kts
2026-05-06 18:44 48.75140 9.05175 37877 ft 470 kts
2026-05-06 18:45 48.81605 9.06840 37880 ft 472 kts
2026-05-06 18:45 48.88133 9.07507 37878 ft 467 kts 351°
2026-05-06 18:46 48.94355 9.05366 37873 ft 461 kts 338°
2026-05-06 18:46 49.00461 9.02294 37861 ft 461 kts 338°
2026-05-06 18:47 49.06546 8.99244 37838 ft 460 kts 338°
2026-05-06 18:47 49.11597 8.96692 37836 ft 460 kts 338°
2026-05-06 18:48 49.17655 8.93609 37535 ft 461 kts 338°
2026-05-06 18:48 49.20699 8.92062 37107 ft 460 kts 338°
2026-05-06 18:48 49.23746 8.90518 36687 ft 461 kts 338°
2026-05-06 18:48 49.26785 8.88977 36262 ft 460 kts 338°
2026-05-06 18:49 49.29830 8.87430 35844 ft 462 kts 337°
2026-05-06 18:49 49.32888 8.85866 35426 ft 465 kts 337°
2026-05-06 18:49 49.35971 8.84284 35011 ft 468 kts 337°
2026-05-06 18:49 49.39042 8.82705 34585 ft 470 kts 337°
2026-05-06 18:50 49.42150 8.81164 34154 ft 470 kts 339°
2026-05-06 18:50 49.45282 8.79738 33726 ft 468 kts 340°
2026-05-06 18:50 49.48410 8.78402 33302 ft 465 kts 341°
2026-05-06 18:50 49.51534 8.77106 32873 ft 464 kts 341°
2026-05-06 18:51 49.54635 8.75812 32450 ft 461 kts 341°
2026-05-06 18:51 49.57726 8.74502 32029 ft 459 kts 341°
2026-05-06 18:51 49.60791 8.73177 31603 ft 456 kts 341°
2026-05-06 18:51 49.63797 8.71858 31187 ft 454 kts 341°
2026-05-06 18:52 49.66813 8.70520 30760 ft 452 kts 341°
2026-05-06 18:52 49.69844 8.69168 30331 ft 450 kts 341°
2026-05-06 18:52 49.72839 8.67829 29907 ft 448 kts 341°
2026-05-06 18:52 49.75842 8.66491 29479 ft 443 kts 341°
2026-05-06 18:53 49.78782 8.65183 29049 ft 442 kts 341°
2026-05-06 18:53 49.81731 8.63872 28624 ft 439 kts 341°
2026-05-06 18:53 49.84660 8.62574 28194 ft 438 kts 341°
2026-05-06 18:53 49.87570 8.61275 27759 ft 433 kts 341°
2026-05-06 18:54 49.90449 8.59996 27334 ft 428 kts 341°
2026-05-06 18:54 49.93296 8.58730 26909 ft 423 kts 341°
2026-05-06 18:54 49.96105 8.57477 26486 ft 420 kts 341°
2026-05-06 18:54 49.98895 8.56230 26052 ft 415 kts 341°
2026-05-06 18:55 50.01660 8.54993 25631 ft 412 kts 341°
2026-05-06 18:55 50.04417 8.53759 25188 ft 414 kts 341°
2026-05-06 18:55 50.07167 8.52477 24772 ft 410 kts 340°
2026-05-06 18:55 50.09858 8.51091 24336 ft 405 kts 338°
2026-05-06 18:56 50.12487 8.49650 23902 ft 400 kts 337°
2026-05-06 18:56 50.15100 8.48179 23472 ft 396 kts 337°
2026-05-06 18:56 50.17677 8.46729 23045 ft 392 kts 338°
2026-05-06 18:56 50.20236 8.45308 22627 ft 389 kts 338°
2026-05-06 18:57 50.22778 8.43918 22194 ft 386 kts 338°
2026-05-06 18:57 50.25292 8.42560 21763 ft 382 kts 338°
2026-05-06 18:57 50.27808 8.41198 21317 ft 379 kts 337°
2026-05-06 18:57 50.30167 8.39457 20895 ft 372 kts 326°
2026-05-06 18:58 50.32349 8.37289 20476 ft 370 kts 325°
2026-05-06 18:58 50.34515 8.35129 20050 ft 367 kts 325°
2026-05-06 18:58 50.36655 8.32994 19626 ft 364 kts 325°
2026-05-06 18:58 50.38786 8.30861 19196 ft 361 kts 325°
2026-05-06 18:59 50.40902 8.28751 18766 ft 359 kts 325°
2026-05-06 18:59 50.42991 8.26671 18317 ft 355 kts 325°
2026-05-06 18:59 50.45066 8.24595 17867 ft 353 kts 325°
2026-05-06 18:59 50.47140 8.22514 17403 ft 353 kts 325°
2026-05-06 19:00 50.49208 8.20434 16937 ft 352 kts 325°
2026-05-06 19:00 50.51266 8.18365 16489 ft 352 kts 326°
2026-05-06 19:00 50.53319 8.16296 16045 ft 351 kts 325°
2026-05-06 19:00 50.55372 8.14221 15575 ft 351 kts 326°
2026-05-06 19:01 50.57392 8.12164 15122 ft 348 kts 325°
2026-05-06 19:01 50.59435 8.10106 14673 ft 348 kts 326°
2026-05-06 19:01 50.61471 8.08056 14219 ft 347 kts 326°
2026-05-06 19:01 50.63495 8.06009 13767 ft 346 kts 326°
2026-05-06 19:02 50.65505 8.03979 13296 ft 337 kts 325°
2026-05-06 19:02 50.67440 8.02018 12854 ft 324 kts 326°
2026-05-06 19:02 50.69293 8.00137 12403 ft 312 kts 325°
2026-05-06 19:02 50.71082 7.98316 11948 ft 301 kts 326°
2026-05-06 19:03 50.72756 7.96454 11501 ft 289 kts 316°
2026-05-06 19:03 50.74255 7.94408 11050 ft 280 kts 322°
2026-05-06 19:03 50.75817 7.92638 10600 ft 273 kts 323°
2026-05-06 19:03 50.77360 7.90945 10148 ft 267 kts 324°
2026-05-06 19:04 50.78855 7.89308 9860 ft 253 kts 324°
2026-05-06 19:04 50.80302 7.87725 9847 ft 253 kts 324°
2026-05-06 19:04 50.81746 7.86132 9845 ft 254 kts 323°
2026-05-06 19:04 50.83191 7.84535 9848 ft 253 kts 323°
2026-05-06 19:05 50.84633 7.82940 9850 ft 253 kts 323°
2026-05-06 19:05 50.86075 7.81344 9848 ft 252 kts 323°
2026-05-06 19:05 50.87510 7.79753 9850 ft 252 kts 323°
2026-05-06 19:05 50.88915 7.78142 9853 ft 252 kts 317°
2026-05-06 19:06 50.89922 7.75903 9623 ft 253 kts 289°
2026-05-06 19:06 50.90109 7.73208 9128 ft 247 kts 259°
2026-05-06 19:06 50.89405 7.70776 8623 ft 243 kts 231°
2026-05-06 19:06 50.88228 7.68823 8122 ft 246 kts 225°
2026-05-06 19:07 50.86980 7.66976 7622 ft 246 kts 223°
2026-05-06 19:07 50.85712 7.65125 7106 ft 243 kts 224°
2026-05-06 19:07 50.84488 7.63342 6610 ft 242 kts 224°
2026-05-06 19:07 50.83252 7.61547 6109 ft 240 kts 223°
2026-05-06 19:08 50.82019 7.59762 5602 ft 240 kts 224°
2026-05-06 19:08 50.80792 7.57991 5104 ft 237 kts 224°
2026-05-06 19:08 50.79580 7.56253 4969 ft 236 kts 224°
2026-05-06 19:08 50.78353 7.54503 4990 ft 239 kts 223°
2026-05-06 19:09 50.77107 7.52737 4992 ft 236 kts 224°
2026-05-06 19:09 50.75886 7.51009 4981 ft 237 kts 219°
2026-05-06 19:09 50.74396 7.49883 4995 ft 241 kts 197°
2026-05-06 19:09 50.72773 7.49241 4993 ft 245 kts 193°
2026-05-06 19:10 50.71125 7.48664 4991 ft 242 kts 193°
2026-05-06 19:10 50.69484 7.48098 4993 ft 242 kts 193°
2026-05-06 19:10 50.67884 7.47340 4985 ft 237 kts 210°
2026-05-06 19:10 50.66762 7.45622 4982 ft 217 kts 245°
2026-05-06 19:11 50.66476 7.43410 4891 ft 201 kts 276°
2026-05-06 19:11 50.67000 7.41524 4631 ft 191 kts 322°
2026-05-06 19:11 50.68202 7.40773 4474 ft 188 kts 349°
2026-05-06 19:11 50.69388 7.40032 4258 ft 184 kts 316°
2026-05-06 19:12 50.70238 7.38496 4190 ft 190 kts 315°
2026-05-06 19:12 50.71217 7.37131 3986 ft 186 kts 320°
2026-05-06 19:12 50.72175 7.35786 3788 ft 183 kts 318°
2026-05-06 19:12 50.73113 7.34433 3544 ft 179 kts 318°
2026-05-06 19:13 50.74034 7.33113 3326 ft 181 kts 319°
2026-05-06 19:13 50.74936 7.31814 3094 ft 167 kts 319°
2026-05-06 19:13 50.75773 7.30596 2864 ft 158 kts 320°
2026-05-06 19:13 50.76601 7.29429 2665 ft 157 kts 320°
2026-05-06 19:14 50.77414 7.28262 2513 ft 158 kts 320°
2026-05-06 19:14 50.78231 7.27108 2221 ft 160 kts 319°
2026-05-06 19:14 50.79052 7.25920 2050 ft 162 kts 319°
2026-05-06 19:14 50.79874 7.24765 1796 ft 158 kts 322°
2026-05-06 19:15 50.80664 7.23617 1608 ft 144 kts 315°
2026-05-06 19:15 50.81377 7.22556 1379 ft 138 kts 316°
2026-05-06 19:15 50.82077 7.21535 1218 ft 137 kts 319°
2026-05-06 19:15 50.82775 7.20540 1021 ft 135 kts 318°
2026-05-06 19:16 50.83465 7.19536 873 ft 134 kts 319°
2026-05-06 19:16 50.84151 7.18547 714 ft 134 kts 317°
2026-05-06 19:16 50.84843 7.17537 554 ft 137 kts 318°
2026-05-06 19:16 50.85552 7.16519 356 ft 136 kts 318°
2026-05-06 19:17 50.86201 7.15582 292 ft 109 kts 317°
2026-05-06 19:17 50.86634 7.14958 273 ft 59 kts 318°
2026-05-06 19:17 50.86855 7.14573 262 ft 34 kts 293°
2026-05-06 19:17 50.86883 7.14362 259 ft 4 kts 279°
2026-05-06 19:18 50.86887 7.14324 258 ft 11 kts 279°
2026-05-06 19:18 50.86903 7.14174 255 ft 15 kts 280°
2026-05-06 19:18 50.86960 7.14026 251 ft 19 kts 313°
2026-05-06 19:18 50.87073 7.13863 243 ft 25 kts 318°
2026-05-06 19:19 50.87201 7.13678 238 ft 22 kts 317°
2026-05-06 19:19 50.87323 7.13499 234 ft 26 kts 317°
2026-05-06 19:19 50.87458 7.13305 235 ft 24 kts 318°
2026-05-06 19:19 50.87585 7.13121 234 ft 25 kts 317°
2026-05-06 19:20 50.87716 7.12930 233 ft 26 kts 317°
2026-05-06 19:20 50.87789 7.12766 235 ft 17 kts 261°
2026-05-06 19:20 50.87839 7.12611 234 ft 18 kts 343°
2026-05-06 19:20 50.87947 7.12573 232 ft 18 kts 317°
2026-05-06 19:21 50.88027 7.12448 233 ft 8 kts 287°
2026-05-06 19:21 50.87998 7.12389 234 ft 5 kts 216°
2026-05-06 19:21 50.87984 7.12373 232 ft 0 kts 216°